�N����,����,�~����,�C��,���x,�C��,����,���ϕ���,�ő�u�ԕ���,�ő厞����,���˗�,�I�_���x,�n�����x,�ő啗���N��,DTYPE
"16/08/07","00:10",0.0,25.2,88.2,1002.6,290.7,0.3,0.6,328.9,0.00,23.1,27.7,"00:04:48",1
"16/08/07","00:20",0.0,25.2,88.3,1002.6,312.9,0.3,0.6,316.3,0.00,23.2,27.6,"00:12:00",1
"16/08/07","00:30",0.0,25.1,88.3,1002.9,310.1,0.3,0.6,346.7,0.00,23.1,27.4,"00:22:00",1
"16/08/07","00:40",0.0,25.2,88.5,1002.9,315.7,0.5,0.9,339.3,0.00,23.2,27.5,"00:39:20",1
"16/08/07","00:50",0.0,25.0,88.7,1002.9,309.9,0.5,1.1,341.7,0.00,23.0,27.4,"00:40:24",1
"16/08/07","01:00",0.0,24.9,89.0,1002.6,296.8,0.3,0.8,322.8,0.00,23.0,27.5,"00:55:52",1
"16/08/07","01:10",0.0,24.9,89.0,1002.6,308.5,0.3,0.9,332.1,0.00,23.0,27.4,"01:04:24",1
"16/08/07","01:20",0.0,24.9,88.9,1002.9,304.3,0.3,0.8,255.6,0.00,23.0,27.3,"01:12:56",1
"16/08/07","01:30",0.0,25.1,89.1,1002.9,328.1,0.6,1.3,339.0,0.00,23.2,27.4,"01:25:28",1
"16/08/07","01:40",0.0,24.9,89.2,1002.9,314.4,0.7,1.1,342.1,0.00,23.0,27.2,"01:34:08",1
"16/08/07","01:50",0.0,24.7,89.8,1002.6,301.1,0.5,0.6,329.8,0.00,23.0,27.3,"01:40:08",1
"16/08/07","02:00",0.0,24.6,89.9,1002.9,305.1,0.3,0.6,305.8,0.00,22.9,27.3,"01:52:00",1
"16/08/07","02:10",0.0,24.6,90.2,1002.6,321.0,0.7,1.0,0.7,0.00,22.9,27.2,"02:01:52",1
"16/08/07","02:20",0.0,24.5,90.4,1002.9,313.8,0.6,0.9,326.7,0.00,22.9,27.2,"02:11:52",1
"16/08/07","02:30",0.0,24.3,90.7,1002.6,308.1,0.5,0.9,323.5,0.00,22.7,27.0,"02:23:12",1
"16/08/07","02:40",0.0,24.3,90.8,1002.6,313.7,0.6,0.9,330.5,0.00,22.7,27.1,"02:33:12",1
"16/08/07","02:50",0.0,24.2,91.1,1002.4,315.8,0.7,1.0,334.4,0.00,22.7,27.1,"02:45:52",1
"16/08/07","03:00",0.0,24.1,91.1,1002.9,302.1,0.6,1.0,346.8,0.00,22.6,27.0,"02:51:36",1
"16/08/07","03:10",0.0,24.0,91.3,1002.9,312.9,0.6,1.2,333.0,0.00,22.5,26.7,"03:08:08",1
"16/08/07","03:20",0.0,23.9,91.3,1002.9,321.5,0.8,1.2,323.7,0.00,22.4,26.8,"03:13:28",1
"16/08/07","03:30",0.0,24.0,91.4,1002.9,329.3,0.8,1.2,328.5,0.00,22.6,26.7,"03:28:32",1
"16/08/07","03:40",0.0,23.9,91.0,1003.4,304.4,0.6,1.0,322.7,0.00,22.4,26.5,"03:39:44",1
"16/08/07","03:50",0.0,23.8,91.0,1003.4,313.4,0.6,0.9,339.8,0.00,22.3,26.7,"03:41:52",1
"16/08/07","04:00",0.0,23.8,91.1,1003.4,300.5,0.7,1.2,323.1,0.00,22.3,26.7,"03:55:52",1
"16/08/07","04:10",0.0,23.6,90.9,1003.4,294.7,0.6,0.8,314.4,0.00,22.1,26.6,"04:03:20",1
"16/08/07","04:20",0.0,23.5,90.9,1002.9,292.7,0.6,0.9,307.6,0.00,22.0,26.6,"04:19:28",1
"16/08/07","04:30",0.0,23.4,90.9,1003.1,291.4,0.6,0.8,305.6,0.00,21.9,26.6,"04:22:56",1
"16/08/07","04:40",0.0,23.4,90.9,1003.1,299.1,0.7,1.1,314.2,0.00,21.9,26.5,"04:37:52",1
"16/08/07","04:50",0.0,23.3,91.3,1003.1,299.9,0.7,1.1,309.2,0.00,21.8,26.5,"04:48:56",1
"16/08/07","05:00",0.0,23.2,91.6,1003.8,302.7,0.7,0.9,319.5,0.00,21.8,26.3,"04:50:08",1
"16/08/07","05:10",0.0,23.2,91.8,1003.6,298.8,0.7,1.1,310.6,0.00,21.8,26.3,"05:06:24",1
"16/08/07","05:20",0.0,23.2,92.1,1003.4,294.9,0.7,1.2,329.2,0.00,21.9,26.5,"05:19:12",1
"16/08/07","05:30",0.0,23.2,92.1,1003.8,302.1,0.8,1.2,312.2,0.00,21.9,26.3,"05:21:44",1
"16/08/07","05:40",0.0,23.3,92.2,1003.6,307.7,0.7,1.1,315.0,0.00,22.0,26.4,"05:31:04",1
"16/08/07","05:50",0.0,23.4,92.3,1003.6,301.4,0.6,0.9,316.9,0.00,22.1,26.4,"05:48:40",1
"16/08/07","06:00",0.0,23.6,92.2,1003.6,302.3,0.5,0.8,330.6,0.00,22.3,26.3,"05:56:06",1
"16/08/07","06:10",0.0,24.0,91.4,1003.8,321.5,0.6,1.3,337.9,0.01,22.6,26.5,"06:09:18",1
"16/08/07","06:20",0.0,24.9,89.3,1003.8,337.6,0.6,1.1,340.7,0.02,23.1,26.3,"06:10:56",1
"16/08/07","06:30",0.0,25.8,86.5,1003.4,353.7,0.2,0.8,353.1,0.03,23.4,26.3,"06:21:12",1
"16/08/07","06:40",0.0,26.7,83.0,1003.8,63.0,0.1,0.5,34.3,0.05,23.6,26.3,"06:36:24",1
"16/08/07","06:50",0.0,27.3,79.3,1003.8,357.5,0.2,1.0,356.8,0.07,23.4,26.4,"06:48:32",1
"16/08/07","07:00",0.0,27.5,78.4,1003.8,9.7,0.7,1.1,25.1,0.08,23.4,26.6,"06:52:48",1
"16/08/07","07:10",0.0,28.4,77.6,1003.4,37.0,0.2,0.6,54.5,0.10,24.1,26.7,"07:01:44",1
"16/08/07","07:20",0.0,28.8,72.7,1002.9,109.0,0.2,1.0,17.2,0.13,23.4,26.7,"07:16:56",1
"16/08/07","07:30",0.0,28.9,72.9,1003.1,106.8,0.3,1.1,201.0,0.15,23.6,26.8,"07:27:44",1
"16/08/07","07:40",0.0,29.5,69.8,1003.4,167.7,0.2,1.1,214.0,0.17,23.4,26.8,"07:38:24",1
"16/08/07","07:50",0.0,29.7,70.2,1003.4,183.7,0.6,1.2,219.2,0.20,23.7,27.1,"07:41:36",1
"16/08/07","08:00",0.0,30.2,66.6,1003.8,138.8,0.6,1.3,124.3,0.22,23.3,27.0,"07:57:04",1
"16/08/07","08:10",0.0,30.5,65.3,1004.1,69.1,0.8,1.9,127.6,0.25,23.3,27.2,"08:06:44",1
"16/08/07","08:20",0.0,31.0,64.3,1004.1,152.4,0.5,2.0,221.9,0.27,23.5,27.5,"08:16:40",1
"16/08/07","08:30",0.0,31.1,61.4,1004.3,98.6,0.7,1.7,43.3,0.29,22.8,27.3,"08:24:08",1
"16/08/07","08:40",0.0,31.6,61.2,1004.5,111.4,0.8,1.8,116.4,0.31,23.3,27.7,"08:36:40",1
"16/08/07","08:50",0.0,31.1,62.5,1004.5,111.5,1.0,2.2,103.3,0.28,23.1,28.0,"08:41:04",1
"16/08/07","09:00",0.0,32.0,62.3,1004.8,147.7,0.8,2.6,204.9,0.38,23.9,27.9,"08:52:48",1
"16/08/07","09:10",0.0,32.1,61.3,1004.8,124.6,1.2,3.3,109.7,0.35,23.8,28.0,"09:04:32",1
"16/08/07","09:20",0.0,30.9,62.9,1004.3,147.1,1.2,2.5,200.6,0.19,23.0,28.3,"09:18:00",1
"16/08/07","09:30",0.0,31.2,64.0,1003.6,121.3,0.8,2.1,156.8,0.20,23.6,28.3,"09:21:44",1
"16/08/07","09:40",0.0,32.6,61.0,1004.1,76.2,0.7,1.7,348.9,0.33,24.1,28.4,"09:37:36",1
"16/08/07","09:50",0.0,32.5,57.6,1004.1,79.8,1.0,2.1,140.8,0.37,23.1,28.7,"09:40:24",1
"16/08/07","10:00",0.0,32.8,59.9,1004.1,93.0,1.1,3.3,28.7,0.44,24.0,28.9,"09:51:52",1
"16/08/07","10:10",0.0,33.0,57.6,1004.5,105.8,1.2,3.6,357.0,0.47,23.6,29.0,"10:08:48",1
"16/08/07","10:20",0.0,32.9,57.9,1004.3,102.6,1.2,3.2,124.8,0.42,23.6,29.4,"10:13:28",1
"16/08/07","10:30",0.0,32.6,57.6,1004.5,137.4,1.3,2.9,199.1,0.33,23.2,29.3,"10:27:04",1
"16/08/07","10:40",0.0,33.0,55.5,1004.3,143.9,1.1,2.5,127.7,0.36,22.9,29.5,"10:35:44",1
"16/08/07","10:50",0.0,32.5,58.9,1003.8,150.7,1.2,2.8,206.3,0.23,23.5,29.6,"10:42:24",1
"16/08/07","11:00",0.0,33.5,56.6,1003.6,92.2,1.1,2.9,188.6,0.33,23.7,29.7,"10:50:24",1
"16/08/07","11:10",0.0,33.1,56.8,1003.8,174.6,2.0,4.8,194.9,0.40,23.4,29.9,"11:08:00",1
"16/08/07","11:20",0.0,33.9,56.7,1003.6,188.9,2.3,4.5,224.2,0.51,24.1,30.1,"11:12:40",1
"16/08/07","11:30",0.0,33.3,54.3,1003.6,95.5,0.8,1.9,119.5,0.26,22.9,30.1,"11:21:20",1
"16/08/07","11:40",0.0,33.5,52.2,1003.6,102.9,1.2,3.2,189.4,0.37,22.4,30.4,"11:34:00",1
"16/08/07","11:50",0.0,33.7,57.1,1003.4,139.9,0.7,2.2,128.0,0.31,24.1,30.3,"11:46:00",1
"16/08/07","12:00",0.0,34.0,53.7,1003.4,164.1,1.2,3.1,143.7,0.33,23.3,30.5,"11:59:04",1
"16/08/07","12:10",0.0,34.5,50.7,1003.4,114.7,1.1,3.1,118.7,0.47,22.8,30.7,"12:00:08",1
"16/08/07","12:20",0.0,33.8,53.3,1003.4,128.4,1.0,2.1,148.2,0.26,23.0,30.8,"12:15:12",1
"16/08/07","12:30",0.0,34.6,52.4,1003.4,159.2,1.2,2.6,139.0,0.39,23.5,30.8,"12:27:28",1
"16/08/07","12:40",0.0,34.5,50.4,1003.8,153.3,1.3,2.9,211.8,0.41,22.7,31.2,"12:32:16",1
"16/08/07","12:50",0.0,34.1,50.9,1002.9,146.3,1.0,2.8,194.9,0.26,22.5,31.0,"12:40:16",1
"16/08/07","13:00",0.0,35.8,47.4,1003.4,157.5,1.5,3.3,125.8,0.62,22.9,31.3,"12:55:44",1
"16/08/07","13:10",0.0,36.1,47.6,1003.8,160.1,1.5,5.5,188.6,0.59,23.3,31.4,"13:09:20",1
"16/08/07","13:20",0.0,34.1,51.2,1004.1,118.7,1.3,3.4,154.6,0.28,22.6,31.3,"13:17:20",1
"16/08/07","13:30",0.0,34.2,51.8,1003.4,139.7,1.1,2.8,184.9,0.18,22.9,31.4,"13:22:08",1
"16/08/07","13:40",0.0,34.2,47.0,1003.1,146.5,1.3,2.9,132.7,0.22,21.3,31.5,"13:38:16",1
"16/08/07","13:50",0.0,35.3,47.0,1003.1,161.1,1.5,3.9,218.5,0.37,22.3,31.6,"13:47:28",1
"16/08/07","14:00",0.0,36.1,47.2,1003.1,151.3,1.5,2.7,136.1,0.44,23.1,31.4,"13:54:56",1
"16/08/07","14:10",0.0,35.4,46.4,1003.1,154.4,1.8,4.2,167.2,0.37,22.2,31.4,"14:03:12",1
"16/08/07","14:20",0.0,34.8,47.2,1003.1,126.5,1.0,2.5,127.4,0.22,21.9,31.5,"14:16:40",1
"16/08/07","14:30",0.0,35.2,44.8,1002.6,147.4,1.6,3.2,153.4,0.30,21.4,31.5,"14:23:36",1
"16/08/07","14:40",0.0,34.6,46.0,1002.9,140.3,1.2,2.9,157.2,0.13,21.3,31.3,"14:38:32",1
"16/08/07","14:50",0.0,35.8,44.0,1002.4,155.7,1.1,2.5,141.6,0.40,21.7,31.4,"14:47:36",1
"16/08/07","15:00",0.0,36.2,43.6,1002.4,138.9,1.1,2.7,197.2,0.32,21.9,31.8,"14:58:56",1
"16/08/07","15:10",0.0,35.3,43.2,1002.2,155.5,1.7,4.2,195.5,0.25,20.9,31.5,"15:01:52",1
"16/08/07","15:20",0.0,36.2,42.0,1002.2,139.0,1.2,2.6,121.7,0.40,21.3,31.9,"15:12:16",1
"16/08/07","15:30",0.0,36.6,41.2,1002.2,162.0,1.6,3.5,185.1,0.41,21.3,31.9,"15:24:48",1
"16/08/07","15:40",0.0,36.3,40.2,1002.2,174.0,1.5,3.3,186.0,0.38,20.7,32.0,"15:32:48",1
"16/08/07","15:50",0.0,36.7,39.3,1002.4,143.4,1.3,2.9,157.8,0.36,20.6,32.1,"15:47:28",1
"16/08/07","16:00",0.0,36.6,36.3,1002.6,161.5,1.6,3.7,188.0,0.33,19.3,31.8,"15:55:04",1
"16/08/07","16:10",0.0,36.4,36.7,1002.4,184.0,1.8,4.0,196.8,0.29,19.3,31.8,"16:03:20",1
"16/08/07","16:20",0.0,36.1,39.5,1002.2,134.0,1.2,4.0,218.8,0.27,20.2,31.7,"16:19:52",1
"16/08/07","16:30",0.0,35.9,38.9,1002.2,156.7,1.3,2.7,218.5,0.24,19.8,31.7,"16:26:00",1
"16/08/07","16:40",0.0,35.3,37.2,1001.9,153.7,1.5,3.2,165.7,0.16,18.5,31.6,"16:38:48",1
"16/08/07","16:50",0.0,34.8,37.2,1001.5,146.8,1.7,3.1,133.0,0.04,18.1,31.3,"16:42:16",1
"16/08/07","17:00",0.0,34.7,39.3,1001.2,143.6,0.8,1.8,149.9,0.02,18.9,31.2,"16:52:00",1
"16/08/07","17:10",0.0,34.6,37.1,1000.8,126.5,1.1,3.1,141.5,0.01,17.9,31.1,"17:09:52",1
"16/08/07","17:20",0.0,34.5,36.3,1000.5,153.9,1.5,3.5,148.4,0.00,17.4,30.7,"17:10:16",1
"16/08/07","17:30",0.0,34.3,36.8,1000.3,123.9,1.2,3.3,146.3,0.00,17.5,30.8,"17:22:40",1
"16/08/07","17:40",0.0,34.1,36.3,1000.5,145.6,1.3,3.3,109.2,0.00,17.1,30.9,"17:33:36",1
"16/08/07","17:50",0.0,34.1,37.8,1000.3,149.0,1.1,2.8,172.4,0.00,17.7,30.5,"17:42:40",1
"16/08/07","18:00",0.0,33.8,37.9,1000.0,135.4,1.1,2.4,135.8,0.00,17.5,30.3,"17:51:28",1
"16/08/07","18:10",0.0,33.6,38.8,1000.5,143.7,0.7,2.4,151.4,0.00,17.7,30.2,"18:04:24",1
"16/08/07","18:20",0.0,33.4,42.0,1000.0,162.3,1.0,1.9,208.9,0.00,18.8,30.1,"18:11:12",1
"16/08/07","18:30",0.0,32.4,46.8,1000.3,293.4,0.2,1.0,356.2,0.00,19.6,30.0,"18:26:16",1
"16/08/07","18:40",0.0,31.2,49.9,1000.0,3.7,0.1,1.0,10.8,0.00,19.6,30.0,"18:30:48",1
"16/08/07","18:50",0.0,30.3,53.2,999.6,2.0,0.1,0.4,17.0,0.00,19.8,29.7,"18:46:16",1
"16/08/07","19:00",0.0,29.4,55.1,999.6,259.3,0.2,0.5,356.2,0.00,19.5,29.5,"18:52:24",1
"16/08/07","19:10",0.0,28.9,56.5,999.1,275.1,0.1,0.6,211.3,0.00,19.4,29.7,"19:02:16",1
"16/08/07","19:20",0.0,28.5,59.2,999.3,273.4,0.2,0.6,353.3,0.00,19.8,29.3,"19:10:08",1
"16/08/07","19:30",0.0,27.9,61.2,1000.0,290.5,0.2,0.6,325.9,0.00,19.8,29.2,"19:27:44",1
"16/08/07","19:40",0.0,27.5,63.8,1000.3,277.6,0.2,0.6,295.1,0.00,20.1,29.1,"19:35:12",1
"16/08/07","19:50",0.0,27.3,65.0,1000.8,295.7,0.2,0.8,356.9,0.00,20.2,29.0,"19:46:56",1
"16/08/07","20:00",0.0,27.2,68.3,1000.8,311.6,0.6,1.1,336.7,0.00,20.9,28.9,"19:56:48",1
"16/08/07","20:10",0.0,26.8,69.0,1000.8,304.7,0.5,0.9,353.1,0.00,20.7,28.8,"20:08:40",1
"16/08/07","20:20",0.0,26.5,69.0,1000.8,305.0,0.5,0.9,305.6,0.00,20.4,28.7,"20:10:48",1
"16/08/07","20:30",0.0,26.3,69.6,1001.2,293.4,0.3,0.6,322.8,0.00,20.3,28.7,"20:20:16",1
"16/08/07","20:40",0.0,26.1,72.0,1001.2,321.0,0.2,0.5,318.7,0.00,20.7,28.4,"20:31:04",1
"16/08/07","20:50",0.0,25.8,75.4,1001.5,293.8,0.3,0.6,312.9,0.00,21.2,28.2,"20:40:56",1
"16/08/07","21:00",0.0,25.5,75.3,1001.5,297.0,0.2,0.6,336.7,0.00,20.8,28.2,"20:59:36",1
"16/08/07","21:10",0.0,25.5,76.6,1001.5,325.3,0.6,1.1,340.3,0.00,21.1,28.3,"21:06:56",1
"16/08/07","21:20",0.0,25.4,78.4,1001.7,323.8,0.6,1.2,341.7,0.00,21.4,28.2,"21:16:48",1
"16/08/07","21:30",0.0,25.2,78.3,1001.7,304.6,0.5,0.8,328.2,0.00,21.2,28.0,"21:20:16",1
"16/08/07","21:40",0.0,25.3,77.3,1002.2,290.0,0.3,0.9,243.1,0.00,21.1,28.0,"21:36:08",1
"16/08/07","21:50",0.0,25.6,77.8,1002.4,313.5,0.5,0.9,310.6,0.00,21.5,27.8,"21:45:44",1
"16/08/07","22:00",0.0,25.4,79.6,1002.4,321.3,0.6,1.1,326.7,0.00,21.7,27.8,"21:50:56",1
"16/08/07","22:10",0.0,25.1,80.4,1002.4,300.1,0.3,0.9,330.1,0.00,21.5,27.7,"22:06:56",1
"16/08/07","22:20",0.0,24.8,80.6,1002.4,313.7,0.5,0.9,330.2,0.00,21.3,27.5,"22:11:20",1
"16/08/07","22:30",0.0,25.0,81.1,1002.4,333.8,0.6,1.2,340.5,0.00,21.6,27.6,"22:27:52",1
"16/08/07","22:40",0.0,24.9,81.4,1002.4,323.6,0.6,1.1,333.2,0.00,21.5,27.6,"22:33:44",1
"16/08/07","22:50",0.0,24.8,81.2,1002.9,306.4,0.5,0.8,354.8,0.00,21.4,27.5,"22:40:16",1
"16/08/07","23:00",0.0,24.7,81.9,1002.4,297.2,0.6,0.9,311.7,0.00,21.4,27.5,"22:56:40",1
"16/08/07","23:10",0.0,24.7,82.2,1002.6,302.8,0.3,0.8,356.3,0.00,21.5,27.4,"23:01:04",1
"16/08/07","23:20",0.0,24.7,82.7,1002.6,291.7,0.6,1.0,335.3,0.00,21.6,27.2,"23:10:02",1
"16/08/07","23:30",0.0,24.6,82.6,1002.9,306.3,0.3,0.9,313.0,0.00,21.5,27.1,"23:20:24",1
"16/08/07","23:40",0.0,24.7,82.6,1002.9,303.7,0.6,1.2,315.8,0.00,21.6,27.2,"23:39:20",1
"16/08/07","23:50",0.0,24.6,82.7,1002.6,317.8,0.6,1.0,324.4,0.00,21.5,27.0,"23:40:08",1
"16/08/07","24:00",0.0,24.7,82.7,1002.6,311.5,0.6,0.9,300.8,0.00,21.6,26.9,"23:50:16",1
